Galveston, TX

4:45 AM CDT on April 26, 2018 (GMT -0500)
Scholes International At Galveston

Weather History for KGLS - May, 2013

Change the Weather History Date:

Thursday, May 9, 2013

  Actual Average Record
Temperature  
Mean Temperature 75 °F 76 °F  
Max Temperature 79 °F 81 °F 88 °F (2002)
Min Temperature 71 °F 71 °F 58 °F (1885)
Degree Days  
Heating Degree Days 0 0  
Month to date heating degree days 6 0  
Since 1 July heating degree days 751 1009  
Cooling Degree Days 10 11  
Month to date cooling degree days 42 91  
Year to date cooling degree days 276 334  
Growing Degree Days 24 (Base 50)    
Moisture  
Dew Point 72 °F    
Average Humidity 91    
Maximum Humidity 100    
Minimum Humidity 82    
Precipitation  
Precipitation 0.00 in 0.10 in 2.80 in (1991)
Month to date precipitation 0.00 1.17  
Year to date precipitation 13.60 14.15  
Snow  
Snow 0.00 in - - ()
Month to date snowfall 0.0  
Since 1 July snowfall 0.0 0.0  
Snow Depth 0.00 in    
Sea Level Pressure  
Sea Level Pressure 29.96 in    
Wind  
Wind Speed 13 mph (SE)    
Max Wind Speed 22 mph    
Max Gust Speed 28 mph    
Visibility 9 miles    
Events      
T = Trace of Precipitation, MM = Missing Value Source: NWS Daily Summary

Daily Weather History Graph

Daily Weather History Graph

Search for Another Location

Airport or City:

Astronomy

May. 09, 2013 Rise Set
Actual Time 6:31 AM CDT 8:00 PM CDT
Civil Twilight 6:05 AM CDT 8:26 PM CDT
Nautical Twilight 5:34 AM CDT 8:57 PM CDT
Astronomical Twilight 5:03 AM CDT 9:29 PM CDT
Moon 6:14 AM CDT (5/9) 7:57 PM CDT (5/9)
Length of Visible Light 14h 21m
Length of Day
13h 29m
Waning Crescent, 0% of the Moon is Illuminated
May 9
Waning Crescent
May 9
New
May 17
First Quarter
May 24
Full
May 31
Last Quarter

Hourly Weather History & Observations

Time (CDT) Temp. Dew Point Humidity Pressure Visibility Wind Dir Wind Speed Gust Speed Precip Events Conditions
12:31 AM 71.6 °F 68.0 °F 88% 30.01 in 10.0 mi SSE 17.3 mph - N/A   Scattered Clouds
12:52 AM 71.1 °F 68.0 °F 90% 30.01 in 10.0 mi SSE 16.1 mph - N/A   Scattered Clouds
1:05 AM 71.6 °F 68.0 °F 88% 30.01 in 10.0 mi SSE 16.1 mph - N/A   Mostly Cloudy
1:52 AM 71.6 °F 69.8 °F 94% 30.01 in 10.0 mi SSE 11.5 mph - N/A   Overcast
2:52 AM 71.1 °F 70.0 °F 96% 30.00 in 10.0 mi South 12.7 mph - N/A   Overcast
3:52 AM 71.1 °F 70.0 °F 96% 29.99 in 10.0 mi SSE 9.2 mph - N/A   Overcast
4:52 AM 71.1 °F 70.0 °F 96% 29.98 in 10.0 mi SSE 9.2 mph - N/A   Overcast
4:59 AM 71.6 °F 69.8 °F 94% 29.97 in 10.0 mi SSE 10.4 mph - N/A   Overcast
5:52 AM 71.1 °F 70.0 °F 96% 29.97 in 10.0 mi SSE 10.4 mph - N/A   Overcast
6:52 AM 71.1 °F 71.1 °F 100% 29.98 in 10.0 mi SE 11.5 mph - N/A   Scattered Clouds
7:52 AM 72.0 °F 72.0 °F 100% 29.99 in 10.0 mi SE 12.7 mph - N/A   Overcast
8:52 AM 73.0 °F 71.1 °F 93% 30.01 in 10.0 mi SE 8.1 mph - N/A   Overcast
9:25 AM 73.4 °F 71.6 °F 94% 30.02 in 10.0 mi SE 9.2 mph - N/A   Overcast
9:52 AM 73.0 °F 72.0 °F 96% 30.03 in 10.0 mi SE 10.4 mph - N/A   Overcast
10:47 AM 73.4 °F 71.6 °F 94% 30.03 in 10.0 mi SE 12.7 mph - N/A   Overcast
10:52 AM 73.9 °F 72.0 °F 93% 30.03 in 10.0 mi SE 12.7 mph - N/A   Overcast
11:52 AM 75.0 °F 72.0 °F 90% 30.02 in 10.0 mi SSE 15.0 mph - N/A   Overcast
12:36 PM 75.2 °F 71.6 °F 89% 30.01 in 10.0 mi SE 15.0 mph - N/A   Overcast
12:52 PM 75.2 °F 71.6 °F 89% 30.00 in 10.0 mi SE 13.8 mph - N/A   Overcast
1:52 PM 77.0 °F 73.0 °F 88% 29.99 in 6.0 mi SE 16.1 mph - N/A   Overcast
2:52 PM 77.0 °F 71.6 °F 83% 29.97 in 6.0 mi ESE 15.0 mph - N/A   Haze
3:28 PM 75.2 °F 71.6 °F 89% 29.97 in 6.0 mi ESE 13.8 mph - N/A   Overcast
3:52 PM 75.9 °F 73.0 °F 91% 29.96 in 6.0 mi SE 13.8 mph - N/A   Overcast
4:49 PM 75.2 °F 71.6 °F 89% 29.94 in 6.0 mi ESE 12.7 mph 20.7 mph N/A   Overcast
4:52 PM 75.0 °F 72.0 °F 90% 29.94 in 6.0 mi ESE 13.8 mph - N/A   Overcast
5:39 PM 73.4 °F 71.6 °F 94% 29.91 in 10.0 mi ESE 15.0 mph - N/A   Overcast
5:52 PM 75.0 °F 72.0 °F 90% 29.90 in 10.0 mi ESE 16.1 mph - N/A   Overcast
6:03 PM 75.2 °F 71.6 °F 89% 29.89 in 10.0 mi ESE 15.0 mph - N/A   Overcast
6:52 PM 73.4 °F 71.6 °F 94% 29.89 in 9.0 mi ESE 16.1 mph 23.0 mph N/A   Overcast
7:02 PM 73.4 °F 71.6 °F 94% 29.88 in 9.0 mi ESE 16.1 mph 21.9 mph N/A   Overcast
7:04 PM 73.4 °F 71.6 °F 94% 29.88 in 9.0 mi ESE 17.3 mph 21.9 mph N/A   Overcast
7:47 PM 73.4 °F 71.6 °F 94% 29.91 in 8.0 mi SE 16.1 mph - N/A   Overcast
7:52 PM 73.9 °F 72.0 °F 93% 29.91 in 8.0 mi SE 12.7 mph - N/A   Overcast
8:47 PM 73.4 °F 73.4 °F 100% 29.91 in 8.0 mi SE 12.7 mph - N/A   Overcast
8:52 PM 73.4 °F 73.4 °F 100% 29.91 in 8.0 mi SE 11.5 mph - N/A   Overcast
9:32 PM 73.4 °F 73.4 °F 100% 29.92 in 8.0 mi SSE 16.1 mph - N/A   Overcast
9:52 PM 75.9 °F 73.0 °F 91% 29.92 in 8.0 mi SE 17.3 mph - N/A   Overcast
10:17 PM 73.4 °F 73.4 °F 100% 29.93 in 8.0 mi SE 13.8 mph - N/A   Overcast
10:47 PM 73.4 °F 73.4 °F 100% 29.94 in 7.0 mi SSE 13.8 mph - N/A   Overcast
10:52 PM 73.9 °F 73.0 °F 97% 29.94 in 7.0 mi SSE 12.7 mph - N/A   Overcast
11:52 PM 73.4 °F 73.4 °F 100% 29.94 in 6.0 mi SSE 13.8 mph - N/A   Overcast